{"data":{"norad_id":57374,"epoch":"2026-09-20T04:37:00.380064Z","epoch_age_seconds":150873,"freshness":"FRESH","line1":"1 57374U 23099AY  26263.19236551 -.00001088  00000+0 -30037-4 0  9995","line2":"2 57374  43.0022 205.3070 0001583 244.8264 115.2424 15.27567919176154","mean_motion":15.27567919,"eccentricity":0.0001583,"inclination_deg":43.0022,"raan_deg":205.307,"arg_perigee_deg":244.8264,"mean_anomaly_deg":115.2424,"bstar":-3.0037e-5,"rev_number":17615,"period_min":94.267494236372,"perigee_km":481.99913965266,"apogee_km":484.1714026237,"semimajor_km":6861.2222711382,"source":"CELESTRAK","updated_at":"2026-09-21T09:00:33.621162Z"}}